This is the latest recevied weather packets stored in our database for station/object BM3JAS-9. If no packets are shown the sender has not sent any weather packets the latest 10 day(s).
| Time | Temp. | Humidity | Pressure | Rain* | Wind** | Luminosity | Snow |
|---|---|---|---|---|---|---|---|
| 1777900679 | 21.11° C | 72% | 0 hPa | - | - | - | - |
| 1777900079 | 21.11° C | 72% | 0 hPa | - | - | - | - |
| 1777899479 | 21.11° C | 72% | 0 hPa | - | - | - | - |
| 1777898879 | 21.11° C | 72% | 0 hPa | - | - | - | - |
| 1777898279 | 21.11° C | 71% | 0 hPa | - | - | - | - |
| 1777897079 | 21.11° C | 71% | 0 hPa | - | - | - | - |
| 1777896479 | 21.11° C | 71% | 0 hPa | - | - | - | - |
| 1777895279 | 21.11° C | 71% | 0 hPa | - | - | - | - |
| 1777894679 | 21.11° C | 70% | 0 hPa | - | - | - | - |
| 1777894079 | 21.11° C | 70% | 0 hPa | - | - | - | - |
| 1777893479 | 20.56° C | 69% | 0 hPa | - | - | - | - |
| 1777892879 | 20.56° C | 69% | 0 hPa | - | - | - | - |
| 1777892279 | 20.56° C | 69% | 0 hPa | - | - | - | - |
| 1777889879 | 23.33° C | 62% | 0 hPa | - | - | - | - |
| 1777889279 | 23.89° C | 61% | 0 hPa | - | - | - | - |
| 1777887479 | 24.44° C | 55% | 0 hPa | - | - | - | - |
| 1777886879 | 24.44° C | 55% | 0 hPa | - | - | - | - |
| 1777886279 | 24.44° C | 55% | 0 hPa | - | - | - | - |
| 1777885679 | 25° C | 54% | 0 hPa | - | - | - | - |
| 1777885079 | 25° C | 55% | 0 hPa | - | - | - | - |
| 1777883879 | 25° C | 57% | 0 hPa | - | - | - | - |
| 1777883279 | 25° C | 57% | 0 hPa | - | - | - | - |
| 1777882679 | 25° C | 60% | 0 hPa | - | - | - | - |
| 1777882079 | 25° C | 61% | 0 hPa | - | - | - | - |
| 1777881479 | 25° C | 61% | 0 hPa | - | - | - | - |
* Rain since midnight (hover to see other rain measurements)
** Current wind speed in m/s (hover to see current wind gust speed)